Carlyle Lake Weather Center

Moon Phase Calendar



Carlyle Lake Water Level
Online Cameras

 


      

Current Conditions in Carlyle
6/23/2024 7:23:37 AM

76°F
Feels Like 77
Clouds
Humidity
89%
Pressure
29.8"
Wind
11.9 mph (WSW)
Dew Point
72°F
UV Index
0/10 (Low)
Visibility
6 mi

Hourly Forecast

Date & Time Sun, Jun 23
7:00 AM
Sun, Jun 23
8:00 AM
Sun, Jun 23
9:00 AM
Sun, Jun 23
10:00 AM
Sun, Jun 23
11:00 AM
Sun, Jun 23
12:00 PM
Sun, Jun 23
1:00 PM
Sun, Jun 23
2:00 PM
Sun, Jun 23
3:00 PM
Sun, Jun 23
4:00 PM
Sun, Jun 23
5:00 PM
Sun, Jun 23
6:00 PM
Sun, Jun 23
7:00 PM
Sun, Jun 23
8:00 PM
Sun, Jun 23
9:00 PM
Sun, Jun 23
10:00 PM
Sun, Jun 23
11:00 PM
Mon, Jun 24
12:00 AM
Mon, Jun 24
1:00 AM
Mon, Jun 24
2:00 AM
Mon, Jun 24
3:00 AM
Mon, Jun 24
4:00 AM
Mon, Jun 24
5:00 AM
Mon, Jun 24
6:00 AM
Mon, Jun 24
7:00 AM
Mon, Jun 24
8:00 AM
Mon, Jun 24
9:00 AM
Mon, Jun 24
10:00 AM
Mon, Jun 24
11:00 AM
Mon, Jun 24
12:00 PM
Mon, Jun 24
1:00 PM
Mon, Jun 24
2:00 PM
Mon, Jun 24
3:00 PM
Mon, Jun 24
4:00 PM
Mon, Jun 24
5:00 PM
Mon, Jun 24
6:00 PM
Mon, Jun 24
7:00 PM
Mon, Jun 24
8:00 PM
Mon, Jun 24
9:00 PM
Mon, Jun 24
10:00 PM
Mon, Jun 24
11:00 PM
Tue, Jun 25
12:00 AM
Tue, Jun 25
1:00 AM
Tue, Jun 25
2:00 AM
Tue, Jun 25
3:00 AM
Tue, Jun 25
4:00 AM
Tue, Jun 25
5:00 AM
Tue, Jun 25
6:00 AM
Condition
Rain

Clouds

Clouds

Clouds

Clouds

Clouds

Clouds

Clear

Clear

Clear

Clear

Clear

Clear

Clear

Clear

Clear

Clear

Clear

Clear

Clear

Clear

Clear

Clear

Clear

Clear

Clouds

Clouds

Clouds

Clouds

Clouds

Clouds

Clouds

Clouds

Clouds

Clouds

Clouds

Clouds

Clear

Clear

Clear

Clear

Clear

Clouds

Clouds

Clouds

Clouds

Clouds

Clouds
Temperature 76°F75°F76°F77°F77°F80°F84°F86°F87°F86°F85°F84°F81°F77°F74°F73°F72°F70°F69°F68°F68°F67°F67°F67°F70°F74°F77°F79°F82°F84°F86°F87°F88°F88°F88°F85°F83°F79°F77°F76°F75°F75°F75°F74°F74°F74°F74°F74°F
Feels Like 77°F77°F77°F78°F78°F84°F88°F89°F89°F88°F87°F87°F84°F77°F75°F74°F72°F71°F70°F69°F69°F68°F67°F67°F71°F74°F77°F79°F84°F86°F87°F88°F89°F90°F90°F89°F88°F79°F78°F77°F76°F76°F75°F75°F74°F74°F75°F75°F
Cloudiness 99%99%99%99%100%96%84%1%1%0%0%0%0%0%0%0%0%0%0%0%0%0%0%0%1%74%67%79%85%88%88%100%93%73%80%84%87%1%1%1%0%3%15%59%79%85%89%91%
Visibility 6 mi6 mi6 mi6 mi6 mi6 mi6 mi6 mi6 mi6 mi6 mi6 mi6 mi6 mi6 mi6 mi6 mi6 mi6 mi6 mi6 mi6 mi6 mi6 mi6 mi6 mi6 mi6 mi6 mi6 mi6 mi6 mi6 mi6 mi6 mi6 mi6 mi6 mi6 mi6 mi6 mi6 mi6 mi6 mi6 mi6 mi6 mi6 mi
Precipitation 100%0%0%0%0%0%0%0%0%0%0%0%0%0%0%0%0%0%0%0%0%0%0%0%0%0%0%0%0%0%0%0%0%0%0%0%0%0%0%0%0%0%0%0%0%0%0%0%
Humidity 89%89%89%84%82%70%60%53%50%50%52%59%66%76%79%82%84%85%89%91%90%89%89%88%83%74%68%62%57%53%49%48%47%47%49%59%64%72%74%76%76%75%74%75%77%77%77%79%
Dew Point 72°F72°F72°F72°F71°F70°F69°F67°F66°F65°F66°F68°F69°F69°F67°F67°F66°F66°F66°F65°F65°F64°F63°F63°F64°F65°F66°F65°F65°F65°F65°F65°F65°F65°F66°F69°F70°F69°F68°F68°F67°F67°F66°F66°F66°F66°F66°F67°F
Pressure 29.8"29.8"29.8"29.83"29.85"29.85"29.85"29.83"29.83"29.83"29.85"29.85"29.85"29.85"29.88"29.88"29.91"29.91"29.91"29.91"29.91"29.91"29.94"29.94"29.97"30"30"29.97"29.97"29.97"29.94"29.94"29.91"29.91"29.88"29.88"29.85"29.85"29.85"29.88"29.88"29.85"29.85"29.85"29.85"29.85"29.85"29.88"
Wind Speed 11.9 mph11.1 mph11.1 mph12.2 mph11.6 mph11.2 mph11.1 mph11.7 mph12.7 mph13.6 mph12.7 mph10 mph8.9 mph6.8 mph6.4 mph6.5 mph6.7 mph6.6 mph5.6 mph4.1 mph4.1 mph3.5 mph3.5 mph3.8 mph3.7 mph4.5 mph5.2 mph5.6 mph6.1 mph6.7 mph6.8 mph7.3 mph7.6 mph7.3 mph7.8 mph7.1 mph7.2 mph7.9 mph8.1 mph8.2 mph8.7 mph9.4 mph9.5 mph9 mph9.2 mph9.3 mph10.7 mph11.1 mph
Wind
Direction
245°
WSW
262°
W
291°
WNW
314°
NW
318°
NW
311°
NW
308°
NW
312°
NW
318°
NW
321°
NW
324°
NW
328°
NNW
334°
NNW
337°
NNW
345°
NNW
357°
N

N
18°
NNE
33°
NNE
51°
NE
66°
ENE
97°
E
127°
SE
127°
SE
117°
ESE
120°
ESE
137°
SE
151°
SSE
164°
SSE
173°
S
179°
S
182°
S
185°
S
185°
S
173°
S
150°
SSE
144°
SE
142°
SE
151°
SSE
155°
SSE
156°
SSE
161°
SSE
161°
SSE
172°
S
170°
S
177°
S
182°
S
184°
S

Daily Forecast

Date High Low Precip. Humidity
Today
Jun 23

Rain
87 °F
72 °F
100%
70%
Monday
Jun 24

Clouds
88 °F
67 °F
0%
53%
Tuesday
Jun 25

Rain
98 °F
70 °F
100%
54%
Wednesday
Jun 26

Rain
83 °F
68 °F
100%
76%
Thursday
Jun 27

Clouds
76 °F
56 °F
0%
51%
Friday
Jun 28

Clouds
84 °F
62 °F
0%
56%
Saturday
Jun 29

Rain
77 °F
63 °F
100%
78%
Sunday
Jun 30

Clear
80 °F
57 °F
0%
53%
Monday
Jul 1

Rain
82 °F
62 °F
61%
52%
Tuesday
Jul 2

Rain
92 °F
74 °F
100%
72%
Wednesday
Jul 3

Rain
98 °F
73 °F
100%
60%
Thursday
Jul 4

Rain
97 °F
70 °F
100%
58%
Friday
Jul 5

Clouds
95 °F
79 °F
0%
51%
Saturday
Jul 6

Clear
97 °F
79 °F
0%
52%
Sunday
Jul 7

Clouds
97 °F
78 °F
0%
47%
Monday
Jul 8

Rain
93 °F
77 °F
100%
53%

Temperature 8-14 Day Outlook



Precipitation 8-14 Day Outlook






About Us
Contact Us
Site Map
Search Site
Advertise With Us
   
Carlyle.USLakes.info
THE CARLYLE LAKE WEBSITE

Copyright 2024, Lakes Online
Privacy    |    Legal